TIME,DELAY(SENSOR),PRES,OXYGEN,RAWTEMP,T(OPTODE),TCPHASE,FLUOR,BETA(BETA700),BETA(BETA412),BETA(BETA440),CDOM,C(CSC),ED(ED412.20),ED(ED444.00),ED(ED489.60),ED(ED554.30),LU(LU412.10),LU(LU443.90),LU(LU489.70),LU(LU554.70),COMP,TILTX,TILTY,CHECK
1348456779,5807,901.7199707031250000,34.9105186462402340,557.4578247070312000,4.5646548271179200,56.2687416076660160,56,100,101,78,82,15565,0,0,0,0,2147124461,2147776539,2147577334,2147567899,1342,3,13,36482
1348460375,5810,966.0399780273438000,39.7358093261718750,563.9799194335938000,4.3624877929687500,55.5895004272460940,55,100,102,77,81,15562,0,0,0,0,2147124534,2147773083,2147574582,2147571940,160,3,12,32
1348463975,5808,975.5599975585938000,40.5890312194824200,565.9061279296875000,4.3027100563049320,55.4820518493652340,55,99,101,77,82,15560,0,0,0,0,2147124416,2147774637,2147570477,2147568749,448,3,13,64633
1348467575,5810,981.9699707031250000,40.6361999511718750,566.4633178710938000,4.2854142189025880,55.4814491271972660,56,98,101,78,82,15560,0,0,0,0,2147124114,2147779766,2147572644,2147568704,32,3,13,63718
1348471175,5808,988.5599975585938000,40.5677413940429700,566.6458129882812000,4.2797470092773440,55.4936408996582000,55,99,101,77,82,15551,0,0,0,0,2147126756,2147776685,2147574528,2147571492,126,3,13,45456
1348474775,5809,990.4699707031250000,40.2933082580566400,566.5244140625000000,4.2835178375244140,55.5382194519043000,54,98,100,79,84,15543,0,0,0,0,2147125376,2147776429,2147573430,2147568082,3364,3,13,41703
1348478375,5808,991.7199707031250000,39.9468383789062500,566.6864013671875000,4.2784857749938965,55.5905113220214840,55,99,101,78,83,15544,0,0,0,0,2147122916,2147774555,2147578249,2147569307,356,3,13,17976
1348481975,5810,996.6599731445312000,39.9150505065918000,566.9799804687500000,4.2693691253662110,55.5984992980957000,56,98,100,78,83,15543,0,0,0,0,2147126427,2147775122,2147573568,2147567350,3576,3,12,42174
1348485575,5812,995.3099975585938000,39.9326400756835940,567.0394897460938000,4.2675228118896480,55.5919303894043000,56,103,100,77,82,15540,0,0,0,0,2147120740,2147778002,2147574491,2147568923,451,3,13,39126
1348489175,5808,996.9099731445312000,39.9816818237304700,567.3359985351562000,4.2583160400390625,55.5870208740234400,55,106,100,77,82,15528,0,0,0,0,2147122249,2147777600,2147572544,2147569700,127,3,13,27
1348492775,5808,996.1599731445312000,39.7424507141113300,567.2352294921875000,4.2614479064941410,55.6276397705078100,55,99,100,78,83,15539,0,0,0,0,2147122486,2147773796,2147572132,2147570660,3561,3,13,17349
1348496375,5809,999.2199707031250000,39.4317817687988300,567.2122802734375000,4.2621569633483890,55.6682090759277340,55,100,101,78,82,15542,0,0,0,0,2147122185,2147774153,2147576338,2147567241,109,3,13,37403
1348499975,5808,998.8499755859375000,39.8059005737304700,567.6060791015625000,4.2499289512634280,55.6217994689941400,54,98,101,78,83,15540,0,0,0,0,2147125074,2147770166,2147574948,2147568832,3581,3,13,10083
1348503575,5807,991.6900024414062000,39.4268188476562500,567.5742187500000000,4.2509207725524900,55.6749687194824200,55,100,100,78,82,15542,0,0,0,0,2147125101,2147772342,2147576018,2147567826,3448,3,13,16179
1348507175,5811,999.1400146484375000,39.6228218078613300,567.8104858398438000,4.2435779571533200,55.6481285095214840,55,98,100,78,83,15540,0,0,0,0,2147126180,2147775030,2147574034,2147567954,33,3,13,28964
1348510775,5809,1001.2399902343750000,39.7659187316894500,567.5955200195312000,4.2502570152282715,55.6283607482910160,55,98,101,78,83,15542,0,0,0,0,2147122989,2147775405,2147575908,2147566820,136,3,12,51252
1348514375,5811,998.7800292968750000,39.7326011657714840,567.7161865234375000,4.2465100288391110,55.6327514648437500,55,97,100,78,83,15541,0,0,0,0,2147123337,2147766921,2147577234,2147570258,3478,3,13,15655
1348517975,5811,991.1900024414062000,39.3204498291015600,568.4666748046875000,4.2231998443603520,55.7031898498535160,55,98,101,79,83,15538,0,0,0,0,2147121316,2147776054,2147571163,2147565878,339,3,12,38352
1348521575,5808,994.4000244140625000,40.0067214965820300,569.4697265625000000,4.1920390129089355,55.6074600219726560,55,100,100,78,82,15540,0,0,0,0,2147122203,2147775881,2147569773,2147566409,348,3,13,15155
1348525175,5811,997.3900146484375000,40.4213104248046900,569.3452148437500000,4.1959099769592285,55.5469398498535160,55,98,101,78,82,15540,0,0,0,0,2147124736,2147776667,2147573312,2147564626,131,3,13,20885
1348528775,5807,1003.9299926757812000,40.4540596008300800,568.7409057617188000,4.2146821022033690,55.5365715026855500,56,99,100,79,81,15537,0,0,0,0,2147124251,2147775268,2147574244,2147569801,63,3,12,40238
1348532375,5809,1000.3800048828125000,39.8661003112793000,568.3798828125000000,4.2258930206298830,55.6209716796875000,56,98,100,77,83,15542,0,0,0,0,2147122596,2147777453,2147572891,2147568219,131,3,13,40398
1348535975,5811,999.0100097656250000,39.9143486022949200,568.6397094726562000,4.2178249359130860,55.6189613342285160,55,99,100,79,82,15540,0,0,0,0,2147126089,2147769993,2147574646,2147568146,3510,3,13,29549
1348539575,5810,1004.3400268554688000,39.7754707336425800,568.1063232421875000,4.2343940734863280,55.6295700073242200,55,97,101,78,83,15538,0,0,0,0,2147122285,2147774089,2147575798,2147567661,3403,3,13,64930
1348543175,5807,1001.1199951171875000,39.2448806762695300,567.9785156250000000,4.2383627891540530,55.7107887268066400,55,100,100,76,83,15539,0,0,0,0,2147123547,2147776786,2147575332,2147571794,230,3,13,34983
1348546775,5810,999.6900024414062000,39.4423217773437500,568.1090087890625000,4.2343101501464840,55.6798706054687500,54,99,101,78,82,15537,0,0,0,0,2147122733,2147778258,2147576137,2147568246,1700,3,13,64386
1348550375,5811,1008.9199829101562000,39.1492500305175800,567.5264282226562000,4.2524051666259770,55.7141990661621100,55,97,101,79,83,15539,0,0,0,0,2147122861,2147776347,2147573732,2147568777,3527,3,13,22452
1348553975,5810,1001.3900146484375000,39.3406906127929700,567.9478149414062000,4.2393169403076170,55.6913108825683600,55,99,100,78,82,15527,0,0,0,0,2147121746,2147775524,2147573604,2147572818,3467,3,13,8815
1348557575,5809,998.8499755859375000,39.9639701843261700,568.5418090820312000,4.2208671569824220,55.6031417846679700,55,104,100,77,83,15533,0,0,0,0,2147123172,2147775771,2147572736,2147571556,6,3,13,32407
1348561175,5810,1004.4199829101562000,40.1399612426757800,568.6707763671875000,4.2168598175048830,55.5819892883300800,55,99,99,78,81,15531,0,0,0,0,2147122441,2147776091,2147576603,2147568868,219,3,13,20288
1348564775,5753,1005.6599731445312000,40.0854911804199200,568.4503784179688000,4.2237048149108890,55.5875091552734400,55,98,100,77,82,15541,0,0,0,0,2147123044,2147772827,2147574582,2147569033,3224,3,13,22898
1348568375,5810,1012.7899780273438000,39.2999687194824200,567.3673706054688000,4.2573390007019040,55.6943016052246100,54,98,101,78,82,15541,0,0,0,0,2147121993,2147777152,2147573165,2147570852,217,3,13,13193
1348571975,5806,1009.4199829101562000,39.2747993469238300,567.8220825195312000,4.2432169914245605,55.7011413574218750,55,98,100,80,83,15540,0,0,0,0,2147122148,2147775734,2147575808,2147567140,435,3,13,43855
1348575575,5809,1002.8200073242188000,38.9648284912109400,567.5847167968750000,4.2505931854248050,55.7434806823730500,55,100,102,78,82,15540,0,0,0,0,2147122102,2147772260,2147573193,2147569316,701,3,13,41685
1348579175,5809,1008.0399780273438000,39.8004989624023440,568.4235229492188000,4.2245411872863770,55.6257209777832000,54,100,100,78,83,15539,0,0,0,0,2147125403,2147772525,2147579273,2147567853,243,3,13,6566
1348582775,5807,1006.4000244140625000,39.1274185180664060,568.2429199218750000,4.2301521301269530,55.7291297912597660,56,98,101,77,84,15541,0,0,0,0,2147123702,2147771355,2147574272,2147568868,330,3,13,14569
1348586375,5808,1000.3900146484375000,39.1874504089355500,568.2714233398438000,4.2292671203613280,55.7159614562988300,54,100,101,78,83,15536,0,0,0,0,2147122697,2147774592,2147576694,2147569060,713,3,13,17712
1348589975,5810,1012.1599731445312000,40.0188102722168000,568.6168212890625000,4.2185378074646000,55.5973396301269500,55,99,101,78,83,15536,0,0,0,0,2147124205,2147778880,2147571492,2147571885,3463,3,13,34662
1348593575,5812,1008.9400024414062000,39.5534782409668000,568.2451171875000000,4.2300820350646970,55.6647109985351560,55,98,102,79,83,15536,0,0,0,0,2147124132,2147775131,2147574500,2147570331,2757,3,13,61080
1348597175,5809,999.8400268554688000,39.1581497192382800,568.7409057617188000,4.2146821022033690,55.7275009155273440,56,101,101,78,82,15536,0,0,0,0,2147122852,2147767734,2147572123,2147566372,3563,3,13,8622
1348600775,5809,1003.8099975585938000,39.7931404113769500,569.3041992187500000,4.1971821784973145,55.6365089416503900,55,99,100,78,83,15536,0,0,0,0,2147121225,2147773833,2147576128,2147568649,2,3,13,1187
1348601156,5810,1003.9400024414062000,39.6651000976562500,569.2401733398438000,4.1991710662841800,55.6534690856933600,55,98,103,77,83,15537,0,0,0,0,2147125138,2147781842,2147574829,2147565677,65,3,12,41050
